User: anonymous   Login
Location: S�tio Afonso Gruber
(26.1760°S, 49.5250°W)
Time: 08:29:01
(UTC+00:00)
Language:

CUBESAT XI-V - Orbit

View from above orbital plane
View from above orbital plane
View from above satellite
View from above satellite

Ground track
Ground track

The orbit data is extracted from the following two-line orbital elements,

1 28895U 05043F   22329.83235359  .00000835  00000-0  16576-3 0  9994
2 28895  98.1284  98.9641 0016308 357.4948   2.6170 14.64679525911030
Epoch (UTC): 25 November 2022 19:58:35
Eccentricity: 0.0016308
inclination: 98.1284°
perigee height: 666 km
apogee height: 689 km
right ascension of ascending node: 98.9641°
argument of perigee: 357.4948°
revolutions per day: 14.64679525
mean anomaly at epoch: 2.6170°
orbit number at epoch: 91103

The dashed part of the orbit path shows where the satellite is in the earth's shadow,  

DLR